Regional Weather Roundup
Issued by NWS Wakefield, VA

Home | Current Version | Previous Version | Text Only | Print | Product List | Glossary On
Versions: 1 2 3 4 5 6 7 8 9 10 11 12 13 14 15 16 17 18 19 20 21 22 23 24 25 26 27 28
000
ASUS41 KAKQ 230915
RWRAKQ

REGIONAL WEATHER ROUNDUP
NATIONAL WEATHER SERVICE WAKEFIELD VA
500 AM EDT TUE MAY 23 2017

Note: "fair" indicates few or no clouds below 12,000 feet with no
significant weather and/or obstructions to visibility. * = Denotes
station may not report precipitation (e.g., rain,snow,etc.),
thunder or fog.

VAZ042-051-052>054-056-231000-
NORTHERN VIRGINIA

CITY           SKY/WX    TMP DP  RH WIND       PRES   REMARKS
WASH NATIONAL  CLOUDY    61  57  87 N8        29.95S
DULLES         CLOUDY    58  50  75 NW5       29.95F
FORT BELVOIR   PTCLDY    58  55  89 CALM      29.94S
QUANTICO       MOCLDY    63  52  67 N8        29.94F
FREDERICKSBRG* CLOUDY    62  54  75 CALM      29.94S
STAFFORD*      CLOUDY    62  53  73 N5        29.98S
WARRENTON      MOCLDY    61  49  65 N5        29.94F
CULPEPER*      CLOUDY    60  55  82 N3        29.95F
MANASSAS*        N/A     59  51  75 N9        29.95F
LEESBURG*      CLOUDY    57  54  88 N5        29.96F
WINCHESTER     CLOUDY    50  48  93 CALM      29.97S
FRONT ROYAL*   CLOUDY    52  52 100 CALM      29.96S
LURAY*         PTSUNNY   54  54 100 CALM      29.96F
$$

VAZ048-049-060>072-079>083-231000-
CENTRAL AND SOUTH CENTRAL VIRGINIA

CITY           SKY/WX    TMP DP  RH WIND       PRES   REMARKS
RICHMOND       CLOUDY    64  64 100 N8        29.92S FOG
CHESTERFIELD*  PTSUNNY  N/A N/A N/A N8        29.92S
PETERSBURG*    CLOUDY    65  64  98 N5        29.91S FOG
HANOVER        CLOUDY    62  57  83 N3        29.94R
TAPPAHANNOCK*  CLOUDY    65  65 100 CALM      29.93F FOG
QUINTON*       FOG       63  63 100 CALM      29.91F VSB 1/4
CHARLOTTSVILLE CLOUDY    63  56  78 NE6       29.94S
GORDONSVILLE*  CLOUDY    62  54  74 NE3       29.94S
ORANGE*        CLOUDY    61  50  67 NE6       29.94S
LOUISA*        CLOUDY    66  59  77 MISG      29.93S
BUMPASS*       PTSUNNY   62  55  77 W5        29.94S
FARMVILLE*     CLOUDY    67  67 100 N3        29.91S FOG
CREWE*         CLOUDY    64  60  87 N3        29.91S VSB 3/4
FORT PICKETT*  CLOUDY    65  61  87 NW6       29.91S
CHASE CITY*    CLOUDY    66  65  94 CALM      29.91R
CLARKSVILLE*   CLOUDY    64  64 100 CALM      29.90S
SOUTH HILL*    CLOUDY    66  66 100 CALM      29.96S
LAWRENCEVILLE* CLOUDY    66  65  97 CALM      29.90S
EMPORIA*       CLOUDY    64  64 100 CALM      29.92S
$$

VAZ088>098-231000-
SOUTHEAST VIRGINIA

CITY           SKY/WX    TMP DP  RH WIND       PRES   REMARKS
NORFOLK        CLOUDY    67  65  93 N5        29.90S
VIRGINIA BEACH CLOUDY    64  63  96 CALM      29.90S FOG
NORFOLK NAVAL  CLOUDY    68  65  90 NE5       29.92F
WEST POINT*    CLOUDY    62  62  98 CALM      29.93F
SALUDA*        CLOUDY    64  64 100 N5        29.92F
NEWPORT NEWS   CLOUDY    64  63  96 CALM      29.91R
LANGLEY AFB    CLOUDY    66  66 100 N3        29.91R
FORT EUSTIS    CLOUDY    65  64  94 NE3       29.89F
WILLIAMSBURG*  MOCLDY    66  66 100 CALM      29.92F
HR EXEC AP*    PTSUNNY   63  61  94 CALM      29.89S
FRANKLIN*      CLOUDY    66  65  98 CALM      29.91S
US460-WAKEFLD  CLOUDY    65  65 100 CALM      29.90S FOG
$$

VAZ020-022-025-037-045-231000-
WEST CENTRAL AND SOUTHWEST VIRGINIA

CITY           SKY/WX    TMP DP  RH WIND       PRES   REMARKS
STAUNTON*      CLOUDY    56  52  85 CALM      29.98S
WAYNESBORO*    CLOUDY    58  54  87 NW3       29.96F
HOT SPRINGS VA CLOUDY    54  41  62 E7        30.00F
LYNCHBURG      CLOUDY    64  61  90 NE3       29.93S
DANVILLE       LGT RAIN  65  65 100 CALM      29.90S
SOUTH BOSTON*  CLOUDY    66  65  95 NW3       29.90S
MARTINSVILLE   RAIN      60  59  95 N3        29.95S
ROANOKE        CLOUDY    61  54  77 CALM      29.95F
BLACKSBURG     CLOUDY    59  55  86 NE3       29.98F
DUBLIN*        CLOUDY    58  53  83 CALM      29.96F
MARION*        LGT RAIN  58  56  90 E7        29.97F
HILLSVILLE*    RAIN      57  57 100 CALM      29.95F
RICHLANDS*     CLOUDY    59  55  85 SE6       29.91F
WISE*          CLOUDY    55  55 100 CALM      29.92F
ABINGDON*      CLOUDY    63  58  85 E8        29.89F
$$

MDZ021>025-VAZ099-100-231000-
SOUTHERN MARYLAND AND THE DELMARVA PENINSULA

CITY           SKY/WX    TMP DP  RH WIND       PRES   REMARKS
PATUXENT RIVER CLOUDY    64  64 100 N6        29.92F
BAY BRIDGE APT CLOUDY    61  61 100 N5        29.94S FOG
LEONARDTOWN    CLOUDY    63  61  94 CALM      29.94F
DOVER          CLEAR     59  59  99 NW5       29.92S FOG
GEORGETOWN     PTCLDY    62  60  93 CALM      29.92S FOG
EASTON         FOG       60  58  95 CALM      29.97S VSB 1/2
CAMBRIDGE      CLOUDY    61  61 100 N5        29.93  FOG
SALISBURY      PTCLDY    62  62 100 N3        29.92S FOG
OCEAN CITY     CLOUDY    63  61  93 CALM      29.93R
WALLOPS ISLAND CLOUDY    64  64 100 CALM      29.93R
ACCOMACK*      CLOUDY    65  52  60 N3        29.92S
$$

NCZ012>017-030>032-231000-
NORTH CENTRAL AND EASTERN NORTH CAROLINA

CITY           SKY/WX    TMP DP  RH WIND       PRES   REMARKS
ROANOKE RAPIDS PTSUNNY   64  64 100 CALM      29.89F
RALEIGH        LGT RAIN  68  67  96 CALM      29.89F
ELIZABETH CITY CLOUDY    68  68 100 CALM      29.90F
AHOSKIE*         N/A     66  65  99 CALM      29.90F
EDENTON*       CLOUDY    71  68  90 CALM      29.90F
CURRITUCK*     CLOUDY   N/A N/A N/A CALM      29.92S HAZE
KILL DEVIL HLS NOT AVBL
MANTEO         CLOUDY    70  69  96 W3        29.91R
CAPE HATTERAS  CLOUDY    73  70  90 S8        29.90F
TARBORO*       NOT AVBL
GOLDSBORO      CLOUDY    68  68 100 CALM      29.87S
WASHINGTON     MOCLDY    67  67  97 CALM      29.89F
GREENVILLE     CLOUDY    68  68 100 CALM      29.91F FOG
NEW BERN       LGT RAIN  68  68 100 CALM      29.90F FOG
WILMINGTON     RAIN      69  68  96 S5        29.89S
$$

VAZ048-231000-
ELSEWHERE

CITY           SKY/WX    TMP DP  RH WIND       PRES   REMARKS
HARRISBURG PA  MOCLDY    54  54 100 N6        29.95F
BALTIMORE      CLOUDY    57  57 100 NW5       29.93F
ANNAPOLIS      CLOUDY    62  62 100 NW6       29.93F FOG
ANDREWS AFB    CLOUDY    59  59  99 N5        29.93F
PHILADELPHIA   CLOUDY    61  57  87 NW5       29.94R
HENDERSON NC   LGT RAIN  64  62  96 CALM      29.89F
GREENSBORO     RAIN      66  66 100 SE8       29.88F FOG
ROCKY MOUNT    MOCLDY    67  67 100 CALM      29.89S
$$

VAZ100-231000-
MARINE

STATION/POSITION TIME  TEMP    WIND        PRES    WAVE   SWELL
                       AIR SEA DIR/SP/G            HT/PER HT/PER
                 (UTC) (F)     (DEG/KT/KT) (MB)    (FT/S) (FT/S)
CAPE MAY NJ      0848   62 61   10/  3/  7 1012.6R
LEWES DE         0848   63 62  340/  5/  6 1012.9R
15NM E FENWICK I 0850   59 57   50/  2/  4 1013.7R   4/ 7   3/ 7
OCEAN-CITY-INLET 0848   63 62   20/  3/  4 1013.6R
WACHAPREAGUE VA  0848   65 67  360/  1/  3 1013.0R
THOMAS POINT MD  0900   61 65  360/  7/  7   N/A
GOOSES REEF MD   0900   64 58   20/ 10/ 10 1014.2    1/ 2
COVE POINT MD    0848   64      20/  8/ 10 1014.0F
SOLOMONS ISLAND  0848   64 67  360/  3/  5   N/A
BISHOPS HEAD MD  0848   63 68  340/  4/  5 1013.7S
PINEY POINT MD   0842           30/  5/  5   N/A
POTOMAC MD       0900   65 68   10/  6/  8 1012.4    1
CAMBRIDGE MD     0842   63 69                N/A
LEWISETTA VA     0848   65 69   40/  4/  5 1013.2F
RAPPAHANNOCK LGT 0842           10/ 12/ 14 1013.6F
STINGRAY PT      0850   65      30/ 10/ 14 1013.0F
YORK RVR RNG VA  0848   66      30/  9/ 10 1012.1F
YORKTOWN VA      0848   65 69   10/  4/  6 1012.5F
JAMESTOWN VA     0900   66 72   30/  6/  8   N/A     0
DOMINION TERM VA 0848   67      20/  4/  5 1012.6F
KIPTOPEKE VA     0848      66   20/  5/  6   N/A
CHES BAY BRIDGE  0848   66 67   30/ 10/ 11 1012.3F
CAPE HENRY VA    0848   65     360/  9/ 10   N/A
WILLOUBY STN VA  0848   67      20/  7/  8 1012.4F
S CRANEY ISL VA  0848   68      30/  5/  7 1012.4F
CAPE HENRY BUOY  0842      64                N/A     3/ 7
1ST LANDING BUOY 0900   66 67              1012.7    2/ 4
CAPE CHARLES BUO 0851      62                N/A     2/ 8
64NM E OF VA BCH 0850   64 64   20/  4/  4 1012.9F   3/ 8   3/ 8
DUCK PIER NC     0848   70 64  330/  3/  4 1012.1S
44100 DUCK FRF   0805      66                N/A     3/ 8
44056 DUCK FRF   0830      65                N/A     3/ 6
OREGON INLET NC  0842   72 74  260/  5/  8 1012.3S
HATTERAS NC      0848   73 75  190/  4/  8 1012.1F
DIAMOND SHLS NC  0850   73 78  190/ 17/ 21 1012.5F   4/ 5   2/ 8
CAPE LOOKOUT NC  0900   73     200/  6/  7 1011.8F
$$




USA.gov is the U.S. government's official web portal to all federal, state and local government web resources and services.